THOR ABLESTAR DEB, 337

Orbit data source: Space-Track

THOR ABLESTAR DEB, 337 is space debris in LEO originally from a launch on Thu, 29 Jun 1961 UTC launched from the Air Force Eastern Test Range (AFETR). Debris objects in space refer to the collection of defunct objects orbiting the Earth. Examples of debris include non-operational satellites, rocket bodies, and fragments generated from explosions, collisions, or faulty payload assembly.

Loading next visibility...
Identifier
337, 1961-015DP
Orbit
LEO
Country
Flag of USUS
Related business
Manufacturer
Unknown
Mission
Spacecraft
Bus & Motor
Unknown
Mass
Unknown
Launch date (UTC)
1961-06-29 (65 years ago)
Launch vehicle
Unknown
Launch site
Air Force Eastern Test Range (AFETR)
Object type
Payload
Rocket body
Debris
Shape & HBR
Unknown shape, 0.1 m
Radar Cross Section
Small (<0.1 m²)

Expand to show TLE details & history
Last TLE update: 9 hours ago

TLE from 9 hours ago
0 THOR ABLESTAR DEB
1 00337U 61015DP  26036.89189820  .00000361  00000-0  42637-3 0  9993
2 00337  67.0064 232.4321 0103590 351.4980   8.4334 13.76323311226713
Epoch: 2026-02-05T21:24Z
TLE epoch observation values (Epoch: 2026-02-05T21:24:20.004Z)
Latitude
0.00003°
Longitude
135.31115°
Altitude
903.675 km
Speed
7.438 km/s
True Right ascension
15h 29m 43s
True Declination
0° 00' 00"
Sunlit
Object was in daylight at epoch
Visualization orbit readout
Latitude
Unknown
Longitude
Unknown
Altitude
Unknown
Speed
Unknown
Apparent Right ascension
Unknown
Apparent Declination
Unknown
Sunlit
N/A
Visualization observer readout
Local Sidereal Time
08:13:57
Azimuth
Unknown
Elevation
Unknown
Doppler factor
Unknown
Orbital elements
Apogee altitude
1,051.512 km
Perigee altitude
899.163 km
Semi-major axis
7,353.475 km
Eccentricity
0.01036
Inclination
67.0064°
RAAN
232.4321°
Arg. of periapsis
351.498°
True anomaly
8.60975°
Mean anomaly
8.4334°
Eccentric anomaly
8.52135°
Mean motion
3.44195 °/min
Orbital period
104.59 mins
BSTAR
0.00042637
Loading maneuver chart data...
Computing Atmospheric mass density...

Documentation

Showing up to 5 results
|